Location: Felsheim
(48.7267°N, 10.7386°E)
Time: 17:34:16
(UTC+00:00)

STARLINK-1243 - Pass Details

Date: 09 April 2020
Orbit: 549 x 550 km, 53.0° (Epoch: 29 May)

Event Time Altitude Azimuth Distance (km) Brightness Sun altitude
Rises 19:08:38 0° 293° (WNW) 2,734 9.4 -11.4°
Reaches altitude 10° 19:10:53 10° 296° (WNW) 1,838 7.9 -11.7°
Maximum altitude 19:15:04 72° 20° (NNE) 587 3.7 -12.4°
Enters shadow 19:17:56 19° 103° (ESE) 1,336 5.0 -12.8°
